Time,TemperatureF,DewpointF,PressureIn,WindDirection,WindDirectionDegrees,WindSpeedMPH,WindSpeedGustMPH,Humidity,HourlyPrecipIn,Conditions,Clouds,dailyrainin,SolarRadiationWatts/m^2,SoftwareType,DateUTC
2013-07-01 00:01:00,57.0,55.0,-100.00,NE,36,0.0,0.0,94,0.00,,,0.00,0.000000,,2013-07-01 05:01:00,
2013-07-01 00:11:00,57.0,55.0,-100.00,NE,36,0.0,0.0,94,0.00,,,0.00,0.000000,,2013-07-01 05:11:00,
2013-07-01 00:12:00,55.0,54.0,-100.00,NE,36,0.0,0.0,96,0.00,,,0.00,0.000000,,2013-07-01 05:12:00,
2013-07-01 00:42:00,55.0,54.0,-100.00,NE,36,0.0,0.0,96,0.00,,,0.00,0.000000,,2013-07-01 05:42:00,
2013-07-01 00:52:00,55.0,54.0,-100.00,NE,36,0.0,0.0,96,0.00,,,0.00,0.000000,,2013-07-01 05:52:00,
2013-07-01 01:02:00,55.0,54.0,-100.00,NE,36,0.0,0.0,96,0.00,,,0.00,0.000000,,2013-07-01 06:02:00,
2013-07-01 01:43:00,53.0,52.0,-100.00,NE,36,0.0,0.0,96,0.00,,,0.00,0.000000,,2013-07-01 06:43:00,
2013-07-01 01:53:00,53.0,52.0,-100.00,NE,36,0.0,0.0,96,0.00,,,0.00,0.000000,,2013-07-01 06:53:00,
2013-07-01 02:01:00,53.0,52.0,-100.00,NE,36,0.0,0.0,96,0.00,,,0.00,0.000000,,2013-07-01 07:01:00,
2013-07-01 02:11:00,53.0,52.0,-100.00,NE,36,0.0,0.0,96,0.00,,,0.00,0.000000,,2013-07-01 07:11:00,
2013-07-01 02:43:00,52.0,51.0,-100.00,NE,36,0.0,0.0,96,0.00,,,0.00,0.000000,,2013-07-01 07:43:00,
2013-07-01 02:53:00,52.0,51.0,-100.00,NE,36,0.0,0.0,96,0.00,,,0.00,0.000000,,2013-07-01 07:53:00,
2013-07-01 03:01:00,52.0,51.0,-100.00,NE,36,0.0,0.0,96,0.00,,,0.00,0.000000,,2013-07-01 08:01:00,
2013-07-01 03:11:00,52.0,51.0,-100.00,NE,36,0.0,0.0,96,0.00,,,0.00,0.000000,,2013-07-01 08:11:00,
2013-07-01 03:43:00,51.0,50.0,-100.00,North,358,0.0,2.0,96,0.00,,,0.00,0.000000,,2013-07-01 08:43:00,
2013-07-01 03:52:00,51.0,50.0,-100.00,North,358,0.0,2.0,96,0.00,,,0.00,0.000000,,2013-07-01 08:52:00,
2013-07-01 04:02:00,51.0,50.0,-100.00,North,358,0.0,2.0,96,0.00,,,0.00,0.000000,,2013-07-01 09:02:00,
2013-07-01 04:11:00,51.0,50.0,-100.00,North,358,0.0,2.0,96,0.00,,,0.00,0.000000,,2013-07-01 09:11:00,
2013-07-01 04:43:00,51.0,50.0,-100.00,ESE,116,0.0,1.0,96,0.00,,,0.00,0.000000,,2013-07-01 09:43:00,
2013-07-01 04:53:00,51.0,50.0,-100.00,ESE,116,0.0,1.0,96,0.00,,,0.00,0.000000,,2013-07-01 09:53:00,
2013-07-01 05:03:00,51.0,50.0,-100.00,ESE,116,0.0,1.0,96,0.00,,,0.00,0.000000,,2013-07-01 10:03:00,
2013-07-01 05:11:00,51.0,50.0,-100.00,ESE,116,0.0,1.0,96,0.00,,,0.00,0.000000,,2013-07-01 10:11:00,
2013-07-01 05:43:00,49.0,48.0,-100.00,ESE,116,0.0,0.0,96,0.00,,,0.00,0.000000,,2013-07-01 10:43:00,
2013-07-01 05:52:00,49.0,48.0,-100.00,ESE,116,0.0,0.0,96,0.00,,,0.00,0.000000,,2013-07-01 10:52:00,
2013-07-01 06:11:00,49.0,48.0,-100.00,ESE,116,0.0,0.0,96,0.00,,,0.00,0.000000,,2013-07-01 11:11:00,
2013-07-01 06:33:00,50.0,49.0,-100.00,NE,41,0.0,2.0,96,0.00,,,0.00,15.000000,,2013-07-01 11:33:00,
2013-07-01 06:43:00,50.0,49.0,-100.00,NE,41,0.0,2.0,96,0.00,,,0.00,15.000000,,2013-07-01 11:43:00,
2013-07-01 06:52:00,50.0,49.0,-100.00,NE,41,0.0,2.0,96,0.00,,,0.00,15.000000,,2013-07-01 11:52:00,
2013-07-01 07:01:00,50.0,49.0,-100.00,NE,41,0.0,2.0,96,0.00,,,0.00,15.000000,,2013-07-01 12:01:00,
2013-07-01 07:12:00,62.0,52.0,-100.00,North,4,1.0,4.0,69,-99.99,,,0.00,151.000000,,2013-07-01 12:12:00,
2013-07-01 07:33:00,62.0,52.0,-100.00,North,4,1.0,4.0,69,-99.99,,,0.00,151.000000,,2013-07-01 12:33:00,
2013-07-01 07:43:00,62.0,52.0,-100.00,North,4,1.0,4.0,69,-99.99,,,0.00,151.000000,,2013-07-01 12:43:00,
2013-07-01 07:53:00,62.0,52.0,-100.00,North,4,1.0,4.0,69,-99.99,,,0.00,151.000000,,2013-07-01 12:53:00,
2013-07-01 08:02:00,62.0,52.0,-100.00,North,4,1.0,4.0,69,-99.99,,,0.00,151.000000,,2013-07-01 13:02:00,
2013-07-01 08:43:00,67.0,50.0,-100.00,NNE,22,2.0,8.0,54,0.00,,,0.00,323.000000,,2013-07-01 13:43:00,
2013-07-01 08:53:00,67.0,50.0,-100.00,NNE,22,2.0,8.0,54,0.00,,,0.00,323.000000,,2013-07-01 13:53:00,
2013-07-01 09:01:00,67.0,50.0,-100.00,NNE,22,2.0,8.0,54,0.00,,,0.00,323.000000,,2013-07-01 14:01:00,
2013-07-01 09:11:00,67.0,50.0,-100.00,NNE,22,2.0,8.0,54,0.00,,,0.00,323.000000,,2013-07-01 14:11:00,
2013-07-01 09:34:00,71.0,50.0,-100.00,NE,38,2.0,8.0,48,0.00,,,0.00,473.000000,,2013-07-01 14:34:00,
2013-07-01 09:43:00,71.0,50.0,-100.00,NE,38,2.0,8.0,48,0.00,,,0.00,473.000000,,2013-07-01 14:43:00,
2013-07-01 09:53:00,71.0,50.0,-100.00,NE,38,2.0,8.0,48,0.00,,,0.00,473.000000,,2013-07-01 14:53:00,
2013-07-01 10:02:00,71.0,50.0,-100.00,NE,38,2.0,8.0,48,0.00,,,0.00,473.000000,,2013-07-01 15:02:00,
2013-07-01 10:11:00,71.0,50.0,-100.00,NE,38,2.0,8.0,48,0.00,,,0.00,473.000000,,2013-07-01 15:11:00,
2013-07-01 10:43:00,73.0,50.0,-100.00,NE,39,5.0,11.0,45,0.00,,,0.00,658.000000,,2013-07-01 15:43:00,
2013-07-01 10:53:00,73.0,50.0,-100.00,NE,39,5.0,11.0,45,0.00,,,0.00,658.000000,,2013-07-01 15:53:00,
2013-07-01 11:01:00,73.0,50.0,-100.00,NE,39,5.0,11.0,45,0.00,,,0.00,658.000000,,2013-07-01 16:01:00,
2013-07-01 11:11:00,73.0,50.0,-100.00,NE,39,5.0,11.0,45,0.00,,,0.00,658.000000,,2013-07-01 16:11:00,
2013-07-01 11:12:00,76.0,51.0,-100.00,NE,52,5.0,11.0,42,0.00,,,0.00,787.000000,,2013-07-01 16:12:00,
2013-07-01 11:33:00,76.0,51.0,-100.00,NE,52,5.0,11.0,42,0.00,,,0.00,787.000000,,2013-07-01 16:33:00,
2013-07-01 11:44:00,76.0,51.0,-100.00,NE,52,5.0,11.0,42,0.00,,,0.00,787.000000,,2013-07-01 16:44:00,
2013-07-01 11:53:00,76.0,51.0,-100.00,NE,52,5.0,11.0,42,0.00,,,0.00,787.000000,,2013-07-01 16:53:00,
2013-07-01 12:02:00,76.0,51.0,-100.00,NE,52,5.0,11.0,42,0.00,,,0.00,787.000000,,2013-07-01 17:02:00,
2013-07-01 12:34:00,79.0,51.0,-100.00,NE,44,4.0,11.0,38,0.00,,,0.00,888.000000,,2013-07-01 17:34:00,
2013-07-01 12:43:00,79.0,51.0,-100.00,NE,44,4.0,11.0,38,0.00,,,0.00,888.000000,,2013-07-01 17:43:00,
2013-07-01 12:53:00,79.0,51.0,-100.00,NE,44,4.0,11.0,38,0.00,,,0.00,888.000000,,2013-07-01 17:53:00,
2013-07-01 13:02:00,79.0,51.0,-100.00,NE,44,4.0,11.0,38,0.00,,,0.00,888.000000,,2013-07-01 18:02:00,
2013-07-01 13:11:00,79.0,51.0,-100.00,NE,44,4.0,11.0,38,0.00,,,0.00,888.000000,,2013-07-01 18:11:00,
2013-07-01 13:44:00,80.0,51.0,-100.00,ENE,59,4.0,13.0,36,0.00,,,0.00,923.000000,,2013-07-01 18:44:00,
2013-07-01 13:53:00,80.0,51.0,-100.00,ENE,59,4.0,13.0,36,0.00,,,0.00,923.000000,,2013-07-01 18:53:00,
2013-07-01 14:02:00,80.0,51.0,-100.00,ENE,59,4.0,13.0,36,0.00,,,0.00,923.000000,,2013-07-01 19:02:00,
2013-07-01 14:11:00,80.0,51.0,-100.00,ENE,59,4.0,13.0,36,0.00,,,0.00,923.000000,,2013-07-01 19:11:00,
2013-07-01 14:44:00,81.0,51.0,-100.00,NE,35,5.0,13.0,35,0.00,,,0.00,932.000000,,2013-07-01 19:44:00,
2013-07-01 14:53:00,81.0,51.0,-100.00,NE,35,5.0,13.0,35,0.00,,,0.00,932.000000,,2013-07-01 19:53:00,
2013-07-01 15:02:00,81.0,51.0,-100.00,NE,35,5.0,13.0,35,0.00,,,0.00,932.000000,,2013-07-01 20:02:00,
2013-07-01 15:11:00,81.0,51.0,-100.00,NE,35,5.0,13.0,35,0.00,,,0.00,932.000000,,2013-07-01 20:11:00,
2013-07-01 15:34:00,82.0,49.0,-100.00,NE,38,6.0,15.0,32,0.00,,,0.00,856.000000,,2013-07-01 20:34:00,
2013-07-01 15:43:00,82.0,49.0,-100.00,NE,38,6.0,15.0,32,0.00,,,0.00,856.000000,,2013-07-01 20:43:00,
2013-07-01 15:52:00,82.0,49.0,-100.00,NE,38,6.0,15.0,32,0.00,,,0.00,856.000000,,2013-07-01 20:52:00,
2013-07-01 16:02:00,82.0,49.0,-100.00,NE,38,6.0,15.0,32,0.00,,,0.00,856.000000,,2013-07-01 21:02:00,
2013-07-01 16:11:00,82.0,49.0,-100.00,NE,38,6.0,15.0,32,0.00,,,0.00,856.000000,,2013-07-01 21:11:00,
2013-07-01 16:44:00,81.0,49.0,-100.00,ENE,72,4.0,13.0,33,0.00,,,0.00,687.000000,,2013-07-01 21:44:00,
2013-07-01 16:53:00,81.0,49.0,-100.00,ENE,72,4.0,13.0,33,0.00,,,0.00,687.000000,,2013-07-01 21:53:00,
2013-07-01 17:01:00,81.0,49.0,-100.00,ENE,72,4.0,13.0,33,0.00,,,0.00,687.000000,,2013-07-01 22:01:00,
2013-07-01 17:11:00,81.0,49.0,-100.00,ENE,72,4.0,13.0,33,0.00,,,0.00,687.000000,,2013-07-01 22:11:00,
2013-07-01 17:43:00,81.0,51.0,-100.00,ESE,104,4.0,12.0,35,0.00,,,-99.99,545.000000,,2013-07-01 22:43:00,
2013-07-01 17:53:00,81.0,51.0,-100.00,ESE,104,4.0,12.0,35,0.00,,,-99.99,545.000000,,2013-07-01 22:53:00,
2013-07-01 18:01:00,81.0,51.0,-100.00,ESE,104,4.0,12.0,35,0.00,,,-99.99,545.000000,,2013-07-01 23:01:00,
2013-07-01 18:11:00,81.0,51.0,-100.00,ESE,104,4.0,12.0,35,0.00,,,-99.99,545.000000,,2013-07-01 23:11:00,
2013-07-01 18:12:00,80.0,49.0,-100.00,ESE,106,4.0,9.0,34,0.00,,,0.00,339.000000,,2013-07-01 23:12:00,
2013-07-01 18:44:00,80.0,49.0,-100.00,ESE,106,4.0,9.0,34,0.00,,,0.00,339.000000,,2013-07-01 23:44:00,
2013-07-01 18:53:00,80.0,49.0,-100.00,ESE,106,4.0,9.0,34,0.00,,,0.00,339.000000,,2013-07-01 23:53:00,
2013-07-01 19:01:00,80.0,49.0,-100.00,ESE,106,4.0,9.0,34,0.00,,,0.00,339.000000,,2013-07-02 00:01:00,
2013-07-01 19:43:00,78.0,50.0,-100.00,ENE,75,2.0,8.0,37,0.00,,,0.00,200.000000,,2013-07-02 00:43:00,
2013-07-01 19:53:00,78.0,50.0,-100.00,ENE,75,2.0,8.0,37,0.00,,,0.00,200.000000,,2013-07-02 00:53:00,
2013-07-01 20:01:00,78.0,50.0,-100.00,ENE,75,2.0,8.0,37,0.00,,,0.00,200.000000,,2013-07-02 01:01:00,
2013-07-01 20:11:00,78.0,50.0,-100.00,ENE,75,2.0,8.0,37,0.00,,,0.00,200.000000,,2013-07-02 01:11:00,
2013-07-01 20:43:00,69.0,58.0,-100.00,SE,138,1.0,3.0,68,0.00,,,0.00,63.000000,,2013-07-02 01:43:00,
2013-07-01 20:53:00,69.0,58.0,-100.00,SE,138,1.0,3.0,68,0.00,,,0.00,63.000000,,2013-07-02 01:53:00,
2013-07-01 21:02:00,69.0,58.0,-100.00,SE,138,1.0,3.0,68,0.00,,,0.00,63.000000,,2013-07-02 02:02:00,
2013-07-01 21:11:00,69.0,58.0,-100.00,SE,138,1.0,3.0,68,0.00,,,0.00,63.000000,,2013-07-02 02:11:00,
2013-07-01 21:12:00,63.0,57.0,-100.00,SE,139,0.0,0.0,82,0.00,,,0.00,3.000000,,2013-07-02 02:12:00,
2013-07-01 21:34:00,63.0,57.0,-100.00,SE,139,0.0,0.0,82,0.00,,,0.00,3.000000,,2013-07-02 02:34:00,
2013-07-01 21:43:00,63.0,57.0,-100.00,SE,139,0.0,0.0,82,0.00,,,0.00,3.000000,,2013-07-02 02:43:00,
2013-07-01 21:53:00,63.0,57.0,-100.00,SE,139,0.0,0.0,82,0.00,,,0.00,3.000000,,2013-07-02 02:53:00,
2013-07-01 22:01:00,63.0,57.0,-100.00,SE,139,0.0,0.0,82,0.00,,,0.00,3.000000,,2013-07-02 03:01:00,
2013-07-01 22:43:00,61.0,58.0,-100.00,East,101,0.0,0.0,89,0.00,,,0.00,0.000000,,2013-07-02 03:43:00,
2013-07-01 22:53:00,61.0,58.0,-100.00,East,101,0.0,0.0,89,0.00,,,0.00,0.000000,,2013-07-02 03:53:00,
2013-07-01 23:02:00,61.0,58.0,-100.00,East,101,0.0,0.0,89,0.00,,,0.00,0.000000,,2013-07-02 04:02:00,
2013-07-01 23:11:00,61.0,58.0,-100.00,East,101,0.0,0.0,89,0.00,,,0.00,0.000000,,2013-07-02 04:11:00,
2013-07-01 23:32:00,61.0,58.0,-100.00,NNE,33,0.0,2.0,90,0.00,,,0.00,0.000000,,2013-07-02 04:32:00,
2013-07-01 23:42:00,61.0,58.0,-100.00,NNE,33,0.0,2.0,90,0.00,,,0.00,0.000000,,2013-07-02 04:42:00,
2013-07-01 23:54:00,61.0,58.0,-100.00,NNE,33,0.0,2.0,90,0.00,,,0.00,0.000000,,2013-07-02 04:54:00,